STARLINK-1775 (46681 NORAD) Tracking and Keplerian Element Data

This shows tracking and keplerian element data for the satellite.

Feedback or suggestion? Click here.




ElementValue
Catalog46681
NameSTARLINK-1775
Epoch Orbit180
Epoch Day336.91667824
Epoch Year2020
RAAN253.3172
Inclination53.0536
Eccentricity0.0001363
Argument of Perigee66.1623
Mean Anonmoly204.7298
Mean Motion15.23061483
Decay Rate-0.01058903
L11 46681U 20073M 20336.91667824 -.01058903 00000-0 -48431-1 0 9993
L22 46681 53.0536 253.3172 0001363 66.1623 204.7298 15.23061483 1803

Live tracking and technical data element details for STARLINK-1775 (NORAD 46681). STARLINK-1775 can be tracked NOW for your location showing map with azimuth and elevation plus other details from your city location.

Track the satellite on the map from your city or location and see movement details for azimuth, elevation, latitude, longitude, range, height, and movement on the map or in text.







IsCatalogInMostPopularTable: catalog: 46681, numindb: 10
Update: records affected: 1



GetName: 46681 STARLINK-1775

Hit Count: updated at: Thu, 03 Dec 2020 07:34:27 GMT